www.pogodaiklimat.ru

Погода и климат >> Архив погоды >> Беларусь >> Лида


АРХИВ ПОГОДЫ в Лиде

Время (UTC), дата Ветер
(напр.,м/с)
 
Видим.   Явления Облачность Т
(С)
Тd
(С)
f
(%)
Тe
(С)
Тes
(С)
Комфортность P
(гПа)
Po
(гПа)
Тmin
(С)
Tmax
(С)
R
(мм)
R24
(мм)
S
(см)
03 10.06 В 1 н/о 3/0
[Ci fib]
+14.1 +9.0 71 +15 +15 тепло 1025.4 1006.5
06 10.06 В 2 н/о 3/0
[Ci fib]
+20.1 +9.7 51 +22 +28 комфорт 1025.0 1006.5 +13.3
09 10.06 ЮВ 2 н/о 8/0
[Ac trans Ci fib]
+24.2 +7.8 35 +25 +36 комфорт 1023.9 1005.7
12 10.06 ЮВ 3 н/о 4/0
[Ci fib]
+26.6 +6.1 27 +26 +37 жарко 1022.0 1004.0
15 10.06 В 2 н/о 4/0
[Ci fib]
+27.4 +9.2 32 +28 +33 жарко 1020.3 1002.3
18 10.06 В 1 н/о 3/0
[Ci fib]
+25.2 +13.2 47 +27 +27 жарко 1019.5 1001.4 +27.8
21 10.06 В 2 н/о 3/0
[Ci fib]
+20.7 +12.8 61 +24 +24 комфорт 1019.8 1001.4
00 11.06 В 1 н/о 3/0
[Ci fib]
+18.9 +13.2 69 +21 +21 комфорт 1019.7 1001.2
03 11.06 В 1 н/о 8/0
[Ac trans Ci fib]
+18.3 +13.3 73 +20 +20 тепло 1019.4 1000.9
06 11.06 СВ 1 н/о 8/0
[Ac trans Ci fib]
+22.9 +16.5 67 +28 +33 душно 1019.4 1001.2 +17.8
09 11.06 ЮВ 3 н/о 6/3 600 м
[Cu hum Ci fib]
+28.5 +18.2 54 +33 +41 очень
душно
1017.6 999.8
12 11.06 ЮВ 3 н/о 8/4 600 м
[Cu med, cong Ci fib]
+30.6 +16.3 42 +34 +40 очень
душно
1017.0 999.3
15 11.06 Ю 3 н/о 4/4 600 м
[Cu med, cong]
+31.2 +14.1 35 +33 +36 жарко 1016.7 999.0
18 11.06 Ю 2 н/о 3/0
[Ci fib]
+29.2 +15.9 45 +32 +33 душно 1016.1 998.4 +32.1
21 11.06 ЮВ 1 н/о ясно +21.6 +16.7 74 +26 +26 душно 1017.3 999.1
00 12.06 штиль 0 н/о ясно +18.9 +16.8 88 +20 +20 тепло 1017.1 998.7
03 12.06 Ю 1 н/о ясно +18.2 +16.2 88 +20 +20 тепло 1017.7 999.3
06 12.06 Ю 1 н/о ясно +25.4 +17.7 62 +30 +38 душно 1016.6 998.7 +17.4
09 12.06 ЮВ 2 н/о 4/4 600 м
[Cu hum]
+31.0 +13.8 35 +32 +42 жарко 1016.2 998.5
12 12.06 ЮЗ 2 н/о 6/6 1000 м
[Cu med, cong]
+32.8 +12.6 29 +33 +39 жарко 1015.4 997.8
15 12.06 Ю 2 н/о 8/3 600 м
[Cu med, cong Ci fib]
+31.8 +12.9 32 +33 +36 жарко 1014.3 996.7
18 12.06 штиль 0 н/о 6/0
[Ci fib]
+28.2 +17.8 53 +33 +33 очень
душно
1014.5 996.7 +33.6
21 12.06 ЮВ 1 н/о ясно +21.6 +17.9 79 +26 +26 душно 1015.6 997.4
00 13.06 ЮВ 1 н/о ясно +20.4 +17.1 81 +25 +25 комфорт 1016.4 998.1
03 13.06 В 1 н/о 3/0
[Ac trans]
+20.2 +16.0 77 +24 +24 комфорт 1016.4 998.1
06 13.06 ЮВ 1 н/о ясно +25.5 +17.9 63 +30 +38 душно 1016.4 998.5 +18.7
09 13.06 Ю 3 н/о 4/4 600 м
[Cu med, cong]
+31.2 +14.1 35 +33 +40 жарко 1016.6 998.9
12 13.06 ЮВ 3 н/о в посл. час гроза 8/5 600 м
[Cu med, cong Ac trans]
+31.4 +15.1 37 +34 +37 душно 1015.7 998.1
15 13.06 Ю 3
{10}
н/о 6/3 600 м
[Cu med, cong Ci fib]
+32.6 +12.7 30 +33 +36 жарко 1014.7 997.1
18 13.06 ЮВ 1 н/о гроза без осадков 8/4 600 м
[Cb cap Ac trans]
+28.1 +16.2 48 +31 +31 душно 1015.8 998.0 +33.7
21 13.06 штиль 0 н/о гроза без осадков 6/3 600 м
[Cb cap Ac trans]
+24.3 +17.6 66 +28 +28 душно 1017.0 999.0
00 14.06 СЗ 1 н/о {гроза} 8/0
[Ac trans Ci fib]
+20.9 +17.2 79 +26 +26 душно 1017.2 999.0
03 14.06 ЮВ 1 н/о 3/0
[Ac trans]
+19.8 +17.0 84 +23 +24 комфорт 1017.1 998.8
06 14.06 В 1 н/о 4/0
[Ac trans]
+23.8 +17.0 66 +28 +34 душно 1017.3 999.3 +19.0
09 14.06 С 2 н/о 4/0
[Ac trans Ci fib]
+27.7 +15.9 49 +31 +43 душно 1017.1 999.3
12 14.06 СЗ 2 н/о 6/4 600 м
[Cu med, cong Ac trans]
+30.0 +13.9 37 +32 +39 жарко 1017.6 999.9
15 14.06 СЗ 3 н/о 9/3 1000 м
[Cu med, cong Ac trans Ci fib]
+28.6 +14.6 42 +31 +33 жарко 1018.0 1000.1
18 14.06 СЗ 2 н/о 8/0
[Ci fib]
+27.0 +14.8 47 +30 +30 душно 1018.1 1000.1 +30.8
21 14.06 СЗ 2 н/о 3/0
[Ci fib]
+22.5 +15.3 64 +26 +26 жарко 1019.2 1001.0
00 15.06 СВ 1 н/о ясно +18.8 +15.2 80 +21 +21 комфорт 1019.7 1001.2
03 15.06 СВ 1 н/о 3/0
[Ci fib]
+17.4 +15.3 87 +18 +19 тепло 1019.9 1001.4
06 15.06 В 2 н/о 3/0
[Ac trans]
+21.4 +12.6 57 +24 +29 комфорт 1019.5 1001.2 +17.1
09 15.06 С 2 н/о ясно +24.4 +12.2 46 +26 +41 жарко 1018.2 1000.1
12 15.06 СВ 1 н/о 3/1 600 м
[Cu hum Ci fib]
+27.5 +10.0 33 +28 +43 жарко 1017.3 999.4
15 15.06 В 2 н/о 4/0
[Ac trans Ci fib]
+28.2 +9.5 31 +28 +33 жарко 1015.7 997.9
18 15.06 В 1 н/о 3/0
[Ac trans]
+25.4 +12.0 43 +27 +27 жарко 1015.3 997.3 +29.1
21 15.06 В 2 н/о 3/0
[Ac trans]
+20.5 +9.9 51 +23 +23 комфорт 1015.4 997.1
00 16.06 В 2 н/о 6/0
[Ac trans]
+18.3 +9.4 56 +19 +19 тепло 1015.5 997.1
03 16.06 В 2 н/о 9/3 600 м
[Sc Ac trans]
+17.0 +10.6 66 +17 +17 тепло 1014.2 995.7
06 16.06 СЗ 3 н/о гроза без осадков 9/5 600 м
[Cb cap Ac trans]
+19.0 +11.8 63 +20 +22 тепло 1016.1 997.7 +16.8
09 16.06 В 4-11
{11}
н/о гроза, ливневой дождь 9/8 300 м
[Cb cap Ac trans]
+16.1 +14.5 90 +15 +17 по сезону 1014.2 995.7
12 16.06 ЮВ 2
{11}
н/о гроза, ливневой дождь 9/8 600 м
[Cb cap Ac trans]
+18.1 +16.6 91 +19 +21 по сезону 1014.5 996.1
15 16.06 СВ 2 н/о {гроза, ливн. осадки} 9/9 600 м
[Sc]
+20.3 +17.0 81 +24 +25 комфорт 1014.4 996.1
18 16.06 В 2 н/о {гроза, ливн. осадки} 3/3 600 м
[Sc diur, vesp]
+19.1 +16.1 83 +21 +21 комфорт 1014.5 996.2 +20.7 17
21 16.06 В 1 н/о 8/0
[Ac trans Cs]
+16.4 +14.3 87 +17 +17 тепло 1014.7 996.2

 

Местоположение метеостанции Лида (Гродненская область, Беларусь): широта 53.90 долгота 25.32 высота над уровнем моря 157 м.

В архиве по умолчанию представлена погода в Лиде за последнюю неделю. Архивные данные за месяц целиком и за предыдущие месяцы, начиная с января 2011 года, Вы можете получить, выбрав интересующий диапазон дат из раскрывающегося списка и нажав кнопку "Ввод!".


*Определитесь, кто Вы:
робот инопланетянин человек

Внимание! Время в таблицах - всемирное. Для получения местного времени необходимо прибавить поправку, которая равна 3 ч.

Смотрите также архив погоды в соседних городах и на ближайших метеорологических станциях:

Погода в Новогрудке (Гродненская область, Беларусь) (48 км)
Погода в Варена (Литва) (64 км)
Погода в Ошмянах (Гродненская область, Беларусь) (71 км)
Погода в Вильнюсе (Литва) (81 км)
Погода в Воложине (Минская область, Беларусь) (81 км)
Погода в Гродно (Гродненская область, Беларусь) (91 км)
Погода в Барановичах (Брестская область, Беларусь) (96 км)
Погода в Волковыске (Гродненская область, Беларусь) (99 км)
Погода в Алитусе (Литва) (100 км)
Погода в Столбцах (Минская область, Беларусь) (104 км)

Пояснения к столбцам:

Ветер - указаны скорость ветра в м/с - средняя за 10 мин, порывы в срок и между сроками (в фигурных скобках) и направление, откуда дует ветер: С - северный, СВ - северо-восточный, В - восточный, ЮВ - юго-восточный, Ю - южный, ЮЗ - юго-западный, З - западный, СЗ - северо-западный.
Видимость - горизонтальная дальность видимости в метрах или километрах. При видимости от 1 до 10 км при отсутствии осадков обычно наблюдается дымка, при ухудшении видимости до 1 км и менее - туман. В сухую погоду видимость может ухудшаться дымом, пылью или мглою.
Явления - указаны атмосферные явления, наблюдавшиеся в срок или в последний час перед сроком; фигурными скобками обозначены явления, наблюдавшиеся между сроками (за 1-3 часа до срока); квадратными скобками обозначены град или гололедные отложения с указанием их диаметра в мм.
Облачность - указаны через наклонную черту общая и нижняя облачность в баллах и высота нижней границы облаков в метрах; квадратными скобками обозначены формы облаков: Ci - перистые, Cs - перисто-слоистые, Cc - перисто-кучевые, Ac - высококучевые, As - высокослоистые, Sc - слоисто-кучевые, Ns - слоисто-дождевые, Cu - кучевые, Cb - кучево-дождевые. Подробнее классификацию облаков см. в Атласе облаков (PDF).
T - Температура воздуха - температура, измеренная на высоте 2 м над землей.
Td - Температура точки росы - температура, при понижении до которой содержащийся в воздухе водяной пар достигнет насыщения.
f - Относительная влажность воздуха - влажноcть воздуха, измеренная на высоте 2 м над землей.
Te - Эффективная температура - температура, которую ощущает одетый по сезону человек в тени. Характеристика душности погоды. При расчете учитывается влияние влажности воздуха и скорости ветра на теплоощущения человека.
Tes - Эффективная температура на солнце - температура, которую ощущает человек, с поправкой на солнечный нагрев. Характеристика знойности погоды. Зависит от высоты солнца над горизонтом, облачности и скорости ветра. Ночью, в пасмурную погоду, а также при ветре 12 м/с и более поправка равна нулю.
P - Атмосферное давление - приведенное к уровню моря атмосферное давление.
Po - Атмосферное давление - измеренное на уровне метеостанции атмосферное давление.
Tmin - Минимальная температура - минимум температуры воздуха на высоте 2 м над землей.
Tmax - Максимальная температура - максимум температуры воздуха на высоте 2 м над землей.
R - Количество осадков - Количество выпавших осадков за период времени, мм. При наведении курсора мыши на число - период времени, за который выпало указанное количество осадков.
R24 - Количество осадков - Количество выпавших осадков за 24 часа, мм.
S - Снежный покров - Высота снежного покрова, см. При наведении курсора мыши на число - состояние снежного покрова и степень покрытия местности в баллах.